Regional Weather Roundup
Issued by NWS Grand Forks, ND

Home | Current Version | Previous Version | Text Only | Print | Product List | Glossary Off
Versions: 1 2 3 4 5 6 7 8 9 10 11 12 13 14 15 16 17 18 19 20 21 22 23 24 25 26 27 28 29 30 31 32 33 34 35 36 37 38 39 40 41 42 43 44 45 46 47 48 49 50

000
ASUS43 KFGF 201731
RWRFGF
PRAIRIE TO PINES  WEATHER ROUNDUP
NATIONAL WEATHER SERVICE EASTERN NORTH DAKOTA/GRAND FORKS ND
1200 PM CDT MON OCT 20 2014

 **SATELLITE DATA USED TO AUGMENT SKY COVER AT AUTOMATED STATIONS**
 *****  WEATHER ACROSS EASTERN NORTH DAKOTA  *****

CITY           SKY/WX    TMP DP  RH WIND       PRES   REMARKS
GRAND FORKS    MOSUNNY   51  41  68 VRB3      30.08F
GRAND FRKS AFB SUNNY     51  44  76 E5        30.08F
GRAND FRKS NWS   N/A     54 N/A N/A NE5         N/A
DEVILS LAKE    SUNNY     54  41  62 SE10      30.04F
FARGO          SUNNY     55  43  63 N3        30.07S
WAHPETON ARPT  SUNNY     57  39  51 N6        30.07F
$$

 ***** WEATHER ACROSS CENTRAL AND WESTERN NORTH DAKOTA  *****

CITY           SKY/WX    TMP DP  RH WIND       PRES   REMARKS
BISMARCK       SUNNY     60  43  53 S5        30.06F
MINOT          SUNNY     66  38  35 S15       29.99F
JAMESTOWN      SUNNY     58  40  51 CALM      30.06F
MINOT AFB      SUNNY     65  42  44 S15       29.98F
GARRISON         N/A     60  42  51 S9        30.01F
WILLISTON      SUNNY     63  40  42 SE12      29.93F
DICKINSON      SUNNY     64  41  42 S22G30    29.97F
HETTINGER      SUNNY     64  39  39 S17G26    30.02F
$$

 *****  OTHER AIRPORT OBSERVATIONS IN OUR AREA  *****

CITY           SKY/WX    TMP DP  RH WIND       PRES   REMARKS
WALHALLA         N/A     43  43 100 CALM      30.08F
GRAFTON AIRPOR FAIR      48  41  76 E3        30.08F
VALLEY CITY AR FAIR      55  45  67 CALM      30.07F
CANDO          FAIR      55  43  62 SE10      30.04F
CAVALIER APRT  FAIR      46  41  81 CALM      30.08F
GWINNER        SUNNY     59  43  55 CALM      30.09S
SHEYENNE NWR     N/A     58  43  58 CALM      29.95S
ROLLA          FAIR      57  41  54 S9        30.04F
 ***** THE ABOVE OBSERVATIONS ARE NON NWS ARE NOT QUALITY
       CONTROLLED AND MAY MIS-REPORT RAIN FOR SNOW...
$$

  *****  WEATHER ACROSS NORTHERN MINNESOTA  *****

CITY           SKY/WX    TMP DP  RH WIND       PRES   REMARKS
FLAG ISLAND    CLOUDY    45  36  70 N5        30.06S
WARROAD        CLOUDY    45  37  76 N3        30.08S
ROSEAU         CLOUDY    46  39  76 N5        30.08S
HALLOCK        MOSUNNY   48  43  81 N8        30.08S
THF RVR FALLS  CLOUDY    45  41  87 N3        30.08F
BAUDETTE       CLOUDY    47  38  71 N7        30.06R
WASKISH        CLOUDY    45  43  93 CALM      30.06S
CROOKSTON      SUNNY     52  43  71 NE8       30.08S
STEPHEN NDAWN    N/A     46  43  87 NE5         N/A
GREENBUSH NDAW   N/A     45  39  81 N6          N/A
$$
  *****  WEATHER ACROSS CENTRAL AND WEST MINNESOTA  *****

CITY           SKY/WX    TMP DP  RH WIND       PRES   REMARKS
FOSSTON        MOSUNNY   52  39  62 N13       30.07S
BEMIDJI        PTSUNNY   50  40  67 NW8       30.05S
PARK RAPIDS    SUNNY     53  40  61 N10       30.04R
ELBOW LAKE     FAIR      56  42  59 NW9       30.06S
WADENA         SUNNY     55  43  62 NW8       30.04S
DETROIT LAKES  SUNNY     54  43  66 N9        30.07S
MOORHEAD       SUNNY     55  45  67 N3        30.08S
FERGUS FALLS   SUNNY     59  39  47 N12       30.07S
MORRIS MN      SUNNY     61  43  51 NW9       30.05S
STAPLES        SUNNY     55  39  54 NW8       30.03F
$$
  *****  WEATHER ELSEWHERE ACROSS MINNESOTA  *****

CITY           SKY/WX    TMP DP  RH WIND       PRES   REMARKS
DULUTH         CLOUDY    48  41  76 NW8       29.98S
INTRNTL FALLS  CLOUDY    46  36  68 N12       30.03R
ELY            CLOUDY    46  37  71 N6G16     29.99R
CLOQUET        CLOUDY    48  41  76 NW9       30.00R
WHEATON        SUNNY     57  43  58 NW7       30.08F
BRAINERD       MOSUNNY   51  41  68 N10       30.03S
HIBBING        CLOUDY    49  38  65 N14       30.00R
ALEXANDRIA     SUNNY     58  42  55 N12       30.06R
SAINT CLOUD    SUNNY     61  43  51 N10       30.02S
MINNEAPOLIS    MOSUNNY   59  43  55 NW12      30.00S
$$

  *****  WEATHER ACROSS SOUTH DAKOTA  *****

CITY           SKY/WX    TMP DP  RH WIND       PRES   REMARKS
SIOUX FALLS    MOSUNNY   66  43  43 N6        30.08F
BROOKINGS      NOT AVBL
WATERTOWN      SUNNY     61  41  47 NW7       30.08F
HURON          SUNNY     63  38  39 VRB3      30.10F
SISSETON         N/A     60  41  49 N7        30.07S
ABERDEEN       SUNNY     62  39  42 S3        30.09F
MITCHELL       SUNNY     64  41  42 CALM      30.11F
PIERRE         SUNNY     63  41  44 SE9       30.08F
MOBRIDGE       SUNNY     61  44  53 S9        30.05F
RAPID CITY     SUNNY     63  44  50 E10       30.02F
$$

  *****  SOME WEATHER IN NEARBY STATES *****

CITY           SKY/WX    TMP DP  RH WIND       PRES   REMARKS
GLASGOW MT     SUNNY     57  41  55 SE12      29.86S
GREAT FALLS MT SUNNY     68  31  25 S16       29.85F
CHEYENNE WY    SUNNY     67  33  28 SW15      30.18S
SCOTTSBLUFF NE SUNNY     63  43  48 SE7       30.11F
OMAHA NE       SUNNY     64  44  48 CALM      30.11R
DES MOINES IA  SUNNY     66  43  43 NW12      30.04F
DAVENPORT IA   SUNNY     64  43  46 N18G24    29.96R
CHICAGO IL     MOSUNNY   60  46  59 NW8       29.85S
EAU CLAIRE WI  PTSUNNY   58  41  53 N12       29.96S
LA CROSSE WI   MOSUNNY   61  45  55 NW12      29.95R
$$

  *****  SOME NATIONAL WEATHER *****

CITY           SKY/WX    TMP DP  RH WIND       PRES   REMARKS
LA GUARDIA NY  PTSUNNY   54  32  43 S10       30.06F
RALEIGH NC     MOSUNNY   67  42  40 SW12      30.10F
ATLANTA GA     MOSUNNY   69  50  50 SW8       30.08F
NEW ORLEANS LA MOSUNNY   76  54  46 VRB6      30.06F
OKLAHOMA CITY  MOSUNNY   77  60  55 W9        30.07S
ALBUQUERQUE NM PTSUNNY   62  42  47 NW7       30.20S
SALT LAKE CITY MOSUNNY   66  38  35 SE10      30.06S
LOS ANGELES CA CLOUDY    69  61  75 VRB3      29.95R
BOISE ID       SUNNY     61  32  33 SE3       29.88F
SEATTLE WA     CLOUDY    59  57  93 SW3       29.76R
$$

*** WEATHER ACROSS MANITOBA...SASKATCHEWAN AND ONTARIO ***
                ***ONTARIO***

CITY           SKY/WX    TMP DP  RH WIND       PRES   REMARKS
GERALDTON      DRIZZLE   37  36  93 N9        29.92R
THUNDER BAY    CLOUDY    48  39  71 N8G21     29.93R
SIOUX LOOKOUT  PTSUNNY   41  32  70 N7        30.03
TORONTO        CLOUDY    52  45  76 S5        29.82F
BIG TROUT LK   CLOUDY    32  30  93 N3        30.08
PICKLE LAKE    FLURRIES  36  32  87 N8        30.03R
DRYDEN         CLOUDY    41  36  81 N8        30.03R
KENORA         CLOUDY    43  36  75 NW7       30.07R
$$
                *** MANITOBA***

CITY           SKY/WX    TMP DP  RH WIND       PRES   REMARKS
BRANDON        MOSUNNY   48  43  81 E9        30.03F
DAUPHIN        MOSUNNY   48  45  87 SE9       30.00F
ISLAND LAKE    PTSUNNY   39  32  75 SE6       30.11
PILOT MOUND      N/A     55  43  62 SE9         N/A
THE PAS        PTSUNNY   46  39  76 SE23      29.96F
THOMPSON       DRIZZLE   34  34 100 SE5       30.08S FOG
WINNIPEG       CLOUDY    45  37  76 S2        30.09F
LYNN LAKE      CLOUDY    36  34  93 S12G20    29.96S
CHURCHILL      CLOUDY    36  34  93 VRB2      30.10R
GILLAM         CLOUDY    37  34  87 SW3       30.11R
$$
                ***SASKATCHEWAN***

CITY           SKY/WX    TMP DP  RH WIND       PRES   REMARKS
ESTEVAN        MOSUNNY   66  39  37 S15G21    29.92
KINDERSLEY     MOSUNNY   59  39  47 SW14      29.70F
LLOYDMINSTER   MOSUNNY   54  37  54 SW12      29.60S
PRINCE ALBERT  MOSUNNY   54  43  66 E6        29.73F
REGINA         MOSUNNY   59  43  55 S10       29.84
YORKTON        SUNNY     57  41  54 S12G18    29.90F
N. BATTLEFORD  SUNNY     59  39  47 S12       29.67F
LA RONGE       PTSUNNY   52  43  71 SE14G22   29.71
SASKATOON      MOSUNNY   57  41  54 S13       29.74F
SWIFT CURRENT  SUNNY     66  36  32 S20G25    29.76F
$$
NOTE: THESE ARE AUTOMATED STATIONS WITH LIMITED QUALITY CONTROL
      "FAIR" INDICATES FEW OR NO CLOUDS BELOW 12,000 FEET WITH NO
      SIGNIFICANT WEATHER AND/OR OBSTRUCTIONS TO VISIBILITY.
      SKY/WX - SKY CONDITION AND SIGNIFICANT WEATHER.
      TMP - AIR TEMPERATURE.    DP   - DEWPOINT TEMPERATURE.
      RH  - RELATIVE HUMIDITY.  PRES - PRESSURE.
      HX  - HEAT INDEX.         WCI  - WIND CHILL INDEX.
$



USA.gov is the U.S. government's official web portal to all federal, state and local government web resources and services.